Time,TemperatureF,DewpointF,PressureIn,WindDirection,WindDirectionDegrees,WindSpeedMPH,WindSpeedGustMPH,Humidity,HourlyPrecipIn,Conditions,Clouds,dailyrainin,SolarRadiationWatts/m^2,SoftwareType,DateUTC
2015-06-03 00:09:00,55.2,51.0,30.09,ESE,103,0.0,0.0,86,0.00,,,0.00,0,weatherlink.com 1.10,2015-06-03 04:09:00,
2015-06-03 00:25:00,54.4,51.0,30.09,ESE,103,0.0,0.0,88,0.00,,,0.00,0,weatherlink.com 1.10,2015-06-03 04:25:00,
2015-06-03 00:40:00,53.7,50.0,30.08,ESE,103,0.0,0.0,88,0.00,,,0.00,0,weatherlink.com 1.10,2015-06-03 04:40:00,
2015-06-03 00:55:00,53.2,50.0,30.08,ESE,103,0.0,0.0,89,0.00,,,0.00,0,weatherlink.com 1.10,2015-06-03 04:55:00,
2015-06-03 01:10:00,52.9,50.0,30.08,ESE,103,0.0,0.0,89,0.00,,,0.00,0,weatherlink.com 1.10,2015-06-03 05:10:00,
2015-06-03 01:25:00,52.9,50.0,30.07,ESE,103,0.0,1.0,90,0.00,,,0.00,0,weatherlink.com 1.10,2015-06-03 05:25:00,
2015-06-03 01:40:00,53.0,51.0,30.07,ESE,103,0.0,0.0,91,0.00,,,0.00,0,weatherlink.com 1.10,2015-06-03 05:40:00,
2015-06-03 01:55:00,52.9,50.0,30.07,ESE,103,0.0,0.0,91,0.00,,,0.00,0,weatherlink.com 1.10,2015-06-03 05:55:00,
2015-06-03 02:10:00,52.6,50.0,30.06,ESE,103,0.0,0.0,91,0.00,,,0.00,0,weatherlink.com 1.10,2015-06-03 06:10:00,
2015-06-03 02:25:00,52.3,50.0,30.06,ESE,103,0.0,0.0,91,0.00,,,0.00,0,weatherlink.com 1.10,2015-06-03 06:25:00,
2015-06-03 02:40:00,52.0,50.0,30.05,ESE,103,0.0,0.0,91,0.00,,,0.00,0,weatherlink.com 1.10,2015-06-03 06:40:00,
2015-06-03 02:55:00,51.8,49.0,30.05,ESE,103,0.0,0.0,91,0.00,,,0.00,0,weatherlink.com 1.10,2015-06-03 06:55:00,
2015-06-03 03:10:00,52.4,50.0,30.05,East,100,1.0,2.0,91,0.00,,,0.00,0,weatherlink.com 1.10,2015-06-03 07:10:00,
2015-06-03 03:25:00,53.7,51.0,30.05,East,100,0.0,0.0,91,0.00,,,0.00,0,weatherlink.com 1.10,2015-06-03 07:25:00,
2015-06-03 03:40:00,53.9,51.0,30.05,East,100,0.0,1.0,91,0.00,,,0.00,0,weatherlink.com 1.10,2015-06-03 07:40:00,
2015-06-03 03:55:00,54.4,52.0,30.04,East,100,0.0,1.0,90,0.00,,,0.00,0,weatherlink.com 1.10,2015-06-03 07:55:00,
2015-06-03 04:10:00,54.7,52.0,30.04,East,100,0.0,0.0,91,0.00,,,0.00,0,weatherlink.com 1.10,2015-06-03 08:10:00,
2015-06-03 04:25:00,54.9,52.0,30.04,East,100,0.0,0.0,90,0.00,,,0.00,0,weatherlink.com 1.10,2015-06-03 08:25:00,
2015-06-03 04:40:00,55.0,52.0,30.04,East,100,0.0,0.0,90,0.00,,,0.00,0,weatherlink.com 1.10,2015-06-03 08:40:00,
2015-06-03 04:55:00,55.0,52.0,30.04,East,100,0.0,0.0,90,0.00,,,0.00,0,weatherlink.com 1.10,2015-06-03 08:55:00,
2015-06-03 05:10:00,55.1,53.0,30.04,East,100,0.0,0.0,91,0.00,,,0.00,0,weatherlink.com 1.10,2015-06-03 09:10:00,
2015-06-03 05:25:00,55.1,53.0,30.04,East,100,0.0,0.0,91,0.00,,,0.00,0,weatherlink.com 1.10,2015-06-03 09:25:00,
2015-06-03 05:40:00,55.3,53.0,30.04,East,100,0.0,0.0,90,0.00,,,0.00,0,weatherlink.com 1.10,2015-06-03 09:40:00,
2015-06-03 05:55:00,55.5,53.0,30.04,East,100,0.0,0.0,90,0.00,,,0.00,0,weatherlink.com 1.10,2015-06-03 09:55:00,
2015-06-03 06:10:00,55.6,53.0,30.04,East,100,0.0,0.0,90,0.00,,,0.00,0,weatherlink.com 1.10,2015-06-03 10:10:00,
2015-06-03 06:25:00,55.8,53.0,30.04,East,100,0.0,0.0,90,0.00,,,0.00,7,weatherlink.com 1.10,2015-06-03 10:25:00,
2015-06-03 06:40:00,55.9,53.0,30.04,East,100,0.0,0.0,90,0.00,,,0.00,14,weatherlink.com 1.10,2015-06-03 10:40:00,
2015-06-03 06:55:00,56.2,53.0,30.04,East,100,0.0,0.0,90,0.00,,,0.00,28,weatherlink.com 1.10,2015-06-03 10:55:00,
2015-06-03 07:10:00,56.5,54.0,30.05,East,100,0.0,0.0,90,0.00,,,0.00,37,weatherlink.com 1.10,2015-06-03 11:10:00,
2015-06-03 07:25:00,57.0,54.0,30.06,East,100,0.0,0.0,90,0.00,,,0.00,40,weatherlink.com 1.10,2015-06-03 11:25:00,
2015-06-03 07:40:00,57.3,55.0,30.07,East,100,0.0,0.0,90,0.00,,,0.00,49,weatherlink.com 1.10,2015-06-03 11:40:00,
2015-06-03 07:56:00,57.7,55.0,30.07,East,100,0.0,0.0,90,0.00,,,0.00,62,weatherlink.com 1.10,2015-06-03 11:56:00,
2015-06-03 08:10:00,58.2,55.0,30.07,East,100,0.0,0.0,90,0.00,,,0.00,90,weatherlink.com 1.10,2015-06-03 12:10:00,
2015-06-03 08:25:00,58.9,56.0,30.07,East,100,0.0,0.0,90,0.00,,,0.00,95,weatherlink.com 1.10,2015-06-03 12:25:00,
2015-06-03 08:40:00,59.5,57.0,30.07,East,98,0.0,3.0,91,0.00,,,0.00,116,weatherlink.com 1.10,2015-06-03 12:40:00,
2015-06-03 08:56:00,60.4,58.0,30.07,ENE,69,2.0,3.0,90,0.00,,,0.00,167,weatherlink.com 1.10,2015-06-03 12:56:00,
2015-06-03 09:10:00,60.8,57.0,30.07,ENE,69,0.0,4.0,88,0.00,,,0.00,188,weatherlink.com 1.10,2015-06-03 13:10:00,
2015-06-03 09:26:00,61.0,57.0,30.07,ENE,65,0.0,3.0,87,0.00,,,0.00,227,weatherlink.com 1.10,2015-06-03 13:26:00,
2015-06-03 09:41:00,62.1,58.0,30.07,ENE,69,0.0,3.0,87,0.00,,,0.00,246,weatherlink.com 1.10,2015-06-03 13:41:00,
2015-06-03 09:56:00,62.3,58.0,30.07,East,98,2.0,4.0,86,0.00,,,0.00,388,weatherlink.com 1.10,2015-06-03 13:56:00,
2015-06-03 10:11:00,63.6,58.0,30.06,East,80,0.0,8.0,83,0.00,,,0.00,250,weatherlink.com 1.10,2015-06-03 14:11:00,
2015-06-03 10:26:00,64.7,59.0,30.05,SE,127,3.0,7.0,83,0.00,,,0.00,812,weatherlink.com 1.10,2015-06-03 14:26:00,
2015-06-03 10:41:00,63.8,59.0,30.05,East,89,5.0,7.0,83,0.00,,,0.00,308,weatherlink.com 1.10,2015-06-03 14:41:00,
2015-06-03 10:56:00,64.5,59.0,30.05,East,88,0.0,6.0,83,0.00,,,0.00,325,weatherlink.com 1.10,2015-06-03 14:56:00,
2015-06-03 11:11:00,64.6,59.0,30.05,ESE,103,0.0,4.0,82,0.00,,,0.00,338,weatherlink.com 1.10,2015-06-03 15:11:00,
2015-06-03 11:26:00,65.3,59.0,30.05,ENE,74,3.0,5.0,81,0.00,,,0.00,408,weatherlink.com 1.10,2015-06-03 15:26:00,
2015-06-03 11:41:00,66.4,60.0,30.05,SSE,158,0.0,5.0,79,0.00,,,0.00,345,weatherlink.com 1.10,2015-06-03 15:41:00,
2015-06-03 11:56:00,66.8,60.0,30.05,East,99,5.0,6.0,78,0.00,,,0.00,410,weatherlink.com 1.10,2015-06-03 15:56:00,
2015-06-03 12:11:00,68.4,61.0,30.05,ESE,117,4.0,7.0,77,0.00,,,0.00,545,weatherlink.com 1.10,2015-06-03 16:11:00,
2015-06-03 12:26:00,67.4,60.0,30.05,ENE,76,0.0,4.0,77,0.00,,,0.00,341,weatherlink.com 1.10,2015-06-03 16:26:00,
2015-06-03 12:41:00,67.6,60.0,30.04,NNE,31,3.0,5.0,76,0.00,,,0.00,165,weatherlink.com 1.10,2015-06-03 16:41:00,
2015-06-03 12:56:00,66.5,59.0,30.05,East,92,2.0,7.0,78,0.00,,,0.00,172,weatherlink.com 1.10,2015-06-03 16:56:00,